Tracking 25648 objects as of 17-May-2022
HD Live streaming from Space Station
objects crossing your sky now

ONEWEB-0188

Track ONEWEB-0188 now!
10-day predictions
ONEWEB-0188 is classified as:


NORAD ID: 48231
Int'l Code: 2021-031X
Perigee: 1,211.4 km
Apogee: 1,214.5 km
Inclination: 87.9 °
Period: 109.5 minutes
Semi major axis: 7583 km
RCS: Unknown
Launch date: April 25, 2021
Source: United Kingdom (UK)
Launch site: VOSTOCHNY COSMODROME (VOSTO)
aabbcc
Your satellite tracking list
Your tracking list is empty




NASA's NSSDC Master Catalog

Two Line Element Set (TLE):
1 48231U 21031X   22136.54016778  .00000369  00000-0  95945-3 0  9990
2 48231  87.9061 226.3673 0002014 109.6231 250.5116 13.14503565 52043
Source of the keplerian elements: AFSPC